Location: Vinland
(47.7731°N, 122.6974°W)
Time: 19:53:54
(UTC+00:00)

Vanguard 1 Rocket - Pass Details

Date: 22 March 2023
Orbit: 655 x 4220 km, 34.3° (Epoch: 05 June)

Event Time Altitude Azimuth Distance (km) Brightness Sun altitude
Rises 04:46:44 0° 193° (SSW) 8,441 12.2 -23.6°
Reaches altitude 10° 04:55:53 10° 179° (S) 7,187 11.6 -24.9°
Enters shadow 05:03:42 17° 161° (SSE) 6,201 11.2 -26.0°
